Location: Middlebury
(44.0153°N, 73.1678°W)
Time: 14:09:11
(UTC-04:00)

QB50P2 - Pass Details

Date: 20 June 2024
Orbit: 562 x 579 km, 98.0° (Epoch: 14 July)

Event Time Altitude Azimuth Distance (km) Brightness Sun altitude
Rises 04:15:21 0° 5° (N) 2,770 ? -8.4°
Reaches altitude 10° 04:17:37 10° 357° (N) 1,866 ? -8.1°
Maximum altitude 04:21:19 36° 290° (WNW) 898 ? -7.6°
Drops below altitude 10° 04:25:00 10° 223° (SW) 1,849 ? -7.1°
Enters shadow 04:25:14 - 222° (SW) 1,941 ? -7.1°
